STARLINK-36302, 68524

Orbit data source: Space-Track

STARLINK-36302, 68524 is a payload satellite owned by SpaceX/Seattle (US) in LEO that was launched on Mon, 30 Mar 2026 UTC via an FALCON 9 launch vehicle from the Air Force Eastern Test Range (AFETR). Payload-class satellites include a variety of spacecraft equipped with specific instruments for various scientific and technological missions. These include communications satellites like Starlink; space stations such as the ISS; scientific satellites like the Hubble; Earth observation satellites from companies like Planet Labs, Umbra, and HawkEye 360; GPS; miniature CubeSats for education and research; and military/defense satellites.

Loading next visibility...
Identifier
68524, 2026-068S
Orbit
LEO
Country
Flag of USUS
Related business
Manufacturer
SpaceX/Seattle
Mission
Operational spacecraft
Bus & Motor
STARLINK V2MO, Unknown motor
Mass
575 kg wet, ~530 kg dry
Launch date (UTC)
2026-03-30 (3 months ago)
Launch vehicle
FALCON 9
Launch site
Air Force Eastern Test Range (AFETR)
Object type
Payload
Rocket body
Debris
Shape & HBR
Unknown shape, 2.1 m
Radar Cross Section
Large (>1 m²)

Expand to show TLE details & history
Last TLE update: 1 day ago

TLE from 1 day ago
0 STARLINK-36302
1 68524U 26068S   26170.85548959  .00048861  00000-0  14453-2 0  9992
2 68524  53.1583  12.8317 0000960  95.1943 264.9169 15.34455935 12611
Epoch: 2026-06-19T20:31Z
TLE epoch observation values (Epoch: 2026-06-19T20:31:54.300Z)
Latitude
-0.00004°
Longitude
156.77694°
Altitude
463.496 km
Speed
7.636 km/s
True Right ascension
00h 51m 19s
True Declination
0° 00' 00"
Sunlit
Object was in daylight at epoch
Visualization orbit readout
Latitude
Unknown
Longitude
Unknown
Altitude
Unknown
Speed
Unknown
Apparent Right ascension
Unknown
Apparent Declination
Unknown
Sunlit
N/A
Visualization observer readout
Local Sidereal Time
07:20:47
Azimuth
Unknown
Elevation
Unknown
Doppler factor
Unknown
Orbital elements
Apogee altitude
463.451 km
Perigee altitude
462.137 km
Semi-major axis
6,840.931 km
Eccentricity
0.0001
Inclination
53.1583°
RAAN
12.8317°
Arg. of periapsis
95.1943°
True anomaly
264.90594°
Mean anomaly
264.9169°
Eccentric anomaly
264.91142°
Mean motion
3.83593 °/min
Orbital period
93.85 mins
BSTAR
0.0014453
Loading maneuver chart data...
Computing Atmospheric mass density...
Loading historical data...
Loading historical data...
Loading historical data...
Loading historical data...
Loading historical data...
Loading historical data...
Loading historical data...

Documentation

Showing up to 5 results
|